ATLAS 5 CENTAUR DEB, 44643

Orbit data source: Space-Track

ATLAS 5 CENTAUR DEB, 44643 is space debris in HEO originally from a launch on Wed, 17 Oct 2018 UTC launched from the Air Force Eastern Test Range (AFETR). Debris objects in space refer to the collection of defunct objects orbiting the Earth. Examples of debris include non-operational satellites, rocket bodies, and fragments generated from explosions, collisions, or faulty payload assembly.

Loading next visibility...
Identifier
44643, 2018-079D
Orbit
HEO
Country
Flag of USUS
Related business
Flag of USUnited Launch Alliance/Lockheed Martin (US)
Manufacturer
ULA Decatur
Mission
Spacecraft
Bus & Motor
Unknown
Mass
Unknown
Launch date (UTC)
2018-10-17 (7 years ago)
Launch vehicle
Unknown
Launch site
Air Force Eastern Test Range (AFETR)
Object type
Payload
Rocket body
Debris
Shape & HBR
Unknown shape, 1.1 m
Radar Cross Section
RCS unknown

Expand to show TLE details & history
Last TLE update: 1 day ago

TLE from 1 day ago
0 ATLAS 5 CENTAUR DEB
1 44643U 18079D   25304.49991229 -.00000054  00000-0  00000+0 0  9994
2 44643  13.7063  43.2984 4749515 290.8422  25.7087  1.81975877 43082
Epoch: 2025-10-31T11:59Z
TLE epoch observation values (Epoch: 2025-10-31T11:59:52.421Z)
Latitude
-0.00001°
Longitude
-176.76112°
Altitude
12,391.665 km
Speed
5.33 km/s
True Right ascension
02h 53m 00s
True Declination
0° 00' 00"
Sunlit
Object was in full shadow at epoch
Visualization orbit readout
Latitude
Unknown
Longitude
Unknown
Altitude
Unknown
Speed
Unknown
Apparent Right ascension
Unknown
Apparent Declination
Unknown
Sunlit
N/A
Visualization observer readout
Local Sidereal Time
12:07:03
Azimuth
Unknown
Elevation
Unknown
Doppler factor
Unknown
Orbital elements
Apogee altitude
35,424.4 km
Perigee altitude
8,502.596 km
Semi-major axis
28,341.635 km
Eccentricity
0.47495
Inclination
13.7063°
RAAN
43.2984°
Arg. of periapsis
290.8422°
True anomaly
69.4425°
Mean anomaly
25.7087°
Eccentric anomaly
44.92619°
Mean motion
0.45489 °/min
Orbital period
791.4 mins
BSTAR
0
Loading maneuver chart data...
Computing Atmospheric mass density...

Documentation

Showing up to 5 results
|